Location: Washington
(38.8950°N, 77.0370°W)
Time: 07:49:11
(UTC-04:00)

ISS - All Passes

Search period start: 01 August 2015 00:00
Search period end: 11 August 2015 00:00
Orbit: 401 x 403 km, 51.6° (Epoch: 01 August)

Date Brightness Start Highest point End Pass type
(mag) Time Alt. Az. Time Alt. Az. Time Alt. Az.
01 Aug - 02:19:07 10° N 02:20:33 12° NNE 02:22:02 10° NE visible
01 Aug - 03:54:28 10° NW 03:57:38 46° NE 04:00:48 10° ESE visible
01 Aug - 05:31:38 10° W 05:33:50 17° SW 05:35:58 10° S visible
01 Aug - 20:33:12 10° SSW 20:35:58 26° SE 20:38:46 10° ENE daylight
01 Aug - 22:09:22 10° W 22:12:20 31° NNW 22:15:18 10° NE visible
01 Aug - 23:48:45 10° NNW 23:49:35 11° N 23:50:21 10° N visible
02 Aug - 01:27:02 10° N 01:27:12 10° N 01:27:26 10° NNE visible
02 Aug - 03:01:41 10° NNW 03:04:31 27° NNE 03:07:22 10° E visible
02 Aug - 04:38:00 10° WNW 04:40:59 33° SW 04:43:57 10° SSE visible
02 Aug - 19:41:34 10° SSE 19:43:07 13° SE 19:44:48 10° E daylight
02 Aug - 21:16:02 10° WSW 21:19:14 58° NW 21:22:28 10° NE visible
02 Aug - 22:54:30 10° NW 22:56:15 13° NNW 22:57:57 10° NNE visible
03 Aug - 02:08:59 10° NNW 02:11:19 18° NNE 02:13:40 10° ENE night (unlit)
03 Aug - 03:44:48 10° NW 03:48:04 72° SW 03:51:18 10° SE night (unlit)
03 Aug - 20:23:01 10° SW 20:26:14 68° SE 20:29:29 10° NE daylight
03 Aug - 22:00:34 10° WNW 22:02:58 18° NNW 22:05:20 10° NNE visible
04 Aug - 01:16:23 10° NNW 01:18:01 13° NNE 01:19:43 10° NE visible
04 Aug - 02:51:50 10° NW 02:55:03 55° NE 02:58:15 10° ESE night (unlit)
04 Aug - 04:29:22 10° W 04:31:11 14° SW 04:32:54 10° SSW night (unlit)
04 Aug - 19:30:23 10° SSW 19:33:18 31° SE 19:36:15 10° ENE daylight
04 Aug - 21:06:52 10° W 21:09:44 28° NNW 21:12:36 10° NNE visible
04 Aug - 22:46:39 10° NNW 22:47:02 10° N 22:47:24 10° N visible
05 Aug - 00:23:58 10° N 00:24:40 11° N 00:25:24 10° NNE visible
05 Aug - 01:58:59 10° NW 02:01:55 30° NNE 02:04:53 10° E night (unlit)
05 Aug - 03:35:28 10° WNW 03:38:19 27° SW 03:41:07 10° SSE night (unlit)
05 Aug - 18:38:23 10° S 18:40:25 16° SE 18:42:32 10° E daylight
05 Aug - 20:13:26 10° WSW 20:16:36 48° NW 20:19:46 10° NE daylight
05 Aug - 21:52:08 10° NW 21:53:40 13° NNW 21:55:09 10° NNE visible
06 Aug - 01:06:13 10° NNW 01:08:42 20° NNE 01:11:13 10° ENE visible
06 Aug - 02:42:10 10° WNW 02:45:22 58° SW 02:48:35 10° SE night (unlit)
06 Aug - 19:20:17 10° SW 19:23:32 83° SE 19:26:48 10° NE daylight
06 Aug - 20:58:06 10° WNW 21:00:20 17° NNW 21:02:33 10° NNE visible
07 Aug - 00:13:34 10° NNW 00:15:24 14° NNE 00:17:18 10° NE visible
07 Aug - 01:49:06 10° NW 01:52:22 67° NE 01:55:36 10° ESE night (unlit)
07 Aug - 03:27:13 10° WSW 03:28:26 11° SW 03:29:30 10° SSW night (unlit)
07 Aug - 18:27:30 10° SSW 18:30:33 38° SE 18:33:38 10° ENE daylight
07 Aug - 20:04:19 10° W 20:07:04 25° NNW 20:09:49 10° NNE daylight
07 Aug - 23:21:02 10° N 23:22:02 11° NNE 23:23:04 10° NNE visible
08 Aug - 00:56:12 10° NW 00:59:14 35° NNE 01:02:17 10° E visible
08 Aug - 02:32:53 10° WNW 02:35:33 23° SW 02:38:10 10° S night (unlit)
08 Aug - 17:35:16 10° S 17:37:38 19° SE 17:40:03 10° E daylight
08 Aug - 19:10:46 10° WSW 19:13:52 41° NNW 19:16:59 10° NE daylight
08 Aug - 20:49:42 10° NW 20:51:00 12° NNW 20:52:16 10° N visible
09 Aug - 00:03:24 10° NNW 00:06:01 22° NNE 00:08:39 10° E visible
09 Aug - 01:39:27 10° WNW 01:42:36 47° SW 01:45:44 10° SSE night (unlit)
09 Aug - 18:17:30 10° SW 18:20:45 81° NW 18:24:01 10° NE daylight
09 Aug - 19:55:34 10° WNW 19:57:38 15° NNW 19:59:40 10° NNE daylight
09 Aug - 23:10:40 10° NNW 23:12:43 15° NNE 23:14:46 10° ENE visible
10 Aug - 00:46:19 10° NW 00:49:34 81° NE 00:52:50 10° SE visible
10 Aug - 17:24:36 10° SSW 17:27:43 47° SE 17:30:53 10° ENE daylight
10 Aug - 19:01:40 10° W 19:04:19 22° NNW 19:06:56 10° NNE daylight
10 Aug - 22:18:04 10° N 22:19:19 12° NNE 22:20:37 10° NE visible
10 Aug - 23:53:20 10° NW 23:56:27 41° NNE 23:59:33 10° ESE visible
